timestamp,wind_dir_avg,wind_spd_avg,wind_spd_max_dir,wind_spd_gust,battery_voltage,lat,long
2022-05-01 00:04:01+00:00,253.0,5.31,261.0,6.51,12.41,47.59359,-54.27349
2022-05-01 00:14:01+00:00,264.0,6.38,263.0,6.73,12.33,47.59359,-54.27349
2022-05-01 00:24:01+00:00,270.0,6.32,269.0,6.9,12.33,47.59359,-54.27349
2022-05-01 00:34:01+00:00,267.0,6.21,267.0,6.66,12.33,47.59359,-54.27349
2022-05-01 00:44:01+00:00,263.0,4.77,264.0,5.73,12.33,47.59359,-54.27349
2022-05-01 00:54:01+00:00,302.0,4.4,293.0,5.92,12.33,47.59359,-54.27349
2022-05-01 01:04:01+00:00,288.0,6.25,288.0,6.48,12.33,47.59359,-54.27349
2022-05-01 01:14:01+00:00,290.0,5.99,289.0,6.71,12.33,47.59359,-54.27349
2022-05-01 01:24:01+00:00,287.0,6.13,286.0,6.32,12.33,47.59359,-54.27349
2022-05-01 01:34:01+00:00,283.0,6.0,283.0,6.54,12.33,47.59359,-54.27349
2022-05-01 01:44:01+00:00,281.0,6.17,282.0,6.29,12.33,47.59359,-54.27349
2022-05-01 01:54:01+00:00,273.0,6.08,274.0,6.29,12.33,47.59359,-54.27349
2022-05-01 02:04:01+00:00,257.0,5.58,259.0,6.1,12.33,47.59359,-54.27349
2022-05-01 02:14:00+00:00,262.0,6.01,264.0,6.3,12.33,47.59359,-54.27349
2022-05-01 02:24:00+00:00,262.0,5.58,262.0,6.49,12.33,47.59359,-54.27349
2022-05-01 02:34:00+00:00,257.0,5.78,259.0,6.26,12.33,47.59359,-54.27349
2022-05-01 02:44:00+00:00,256.0,5.21,261.0,5.7,12.33,47.59359,-54.27349
2022-05-01 02:54:00+00:00,256.0,5.5,256.0,5.84,12.33,47.59359,-54.27349
2022-05-01 03:04:00+00:00,253.0,5.44,254.0,5.63,12.33,47.59359,-54.27349
2022-05-01 03:14:01+00:00,261.0,5.27,262.0,5.77,12.33,47.59359,-54.27349
2022-05-01 03:24:01+00:00,259.0,5.45,261.0,5.83,12.33,47.59359,-54.27349
2022-05-01 03:34:01+00:00,268.0,4.91,267.0,5.43,12.33,47.59359,-54.27349
2022-05-01 03:44:01+00:00,276.0,4.31,276.0,5.34,12.33,47.59359,-54.27349
2022-05-01 03:54:01+00:00,288.0,5.64,287.0,6.09,12.33,47.59359,-54.27349
2022-05-01 04:04:01+00:00,289.0,5.51,289.0,5.71,12.33,47.59359,-54.27349
2022-05-01 04:14:01+00:00,293.0,3.81,289.0,4.91,12.25,47.59359,-54.27349
2022-05-01 04:24:01+00:00,297.0,2.64,288.0,4.22,12.25,47.59359,-54.27349
2022-05-01 04:34:01+00:00,262.0,1.96,266.0,4.09,12.25,47.59359,-54.27349
2022-05-01 04:44:01+00:00,256.0,2.78,262.0,4.75,12.25,47.59359,-54.27349
2022-05-01 04:54:01+00:00,263.0,4.75,265.0,5.54,12.25,47.59359,-54.27349
2022-05-01 05:04:01+00:00,271.0,5.1,271.0,5.49,12.25,47.59359,-54.27349
2022-05-01 05:14:00+00:00,273.0,5.6,275.0,5.73,12.25,47.59359,-54.27349
2022-05-01 05:24:00+00:00,272.0,5.18,275.0,5.6,12.25,47.59359,-54.27349
2022-05-01 05:34:00+00:00,261.0,3.25,264.0,5.31,12.25,47.59359,-54.27349
2022-05-01 05:44:00+00:00,273.0,5.05,272.0,5.53,12.25,47.59359,-54.27349
2022-05-01 05:54:00+00:00,268.0,4.96,267.0,5.35,12.25,47.59359,-54.27349
2022-05-01 06:04:00+00:00,271.0,5.2,271.0,5.41,12.25,47.59359,-54.27349
2022-05-01 06:14:00+00:00,270.0,4.95,271.0,5.26,12.25,47.59359,-54.27349
2022-05-01 06:24:00+00:00,261.0,5.89,262.0,6.22,12.25,47.59359,-54.27349
2022-05-01 06:34:00+00:00,266.0,6.39,267.0,6.67,12.25,47.59359,-54.27349
2022-05-01 06:44:00+00:00,270.0,5.85,270.0,6.16,12.25,47.59359,-54.27349
2022-05-01 06:54:00+00:00,238.0,3.45,251.0,5.44,12.25,47.59359,-54.27349
2022-05-01 07:04:00+00:00,196.0,2.87,212.0,3.36,12.25,47.59359,-54.27349
2022-05-01 07:14:00+00:00,192.0,2.95,190.0,3.23,12.17,47.59359,-54.27349
2022-05-01 07:24:00+00:00,197.0,2.45,203.0,2.75,12.17,47.59359,-54.27349
2022-05-01 07:34:00+00:00,241.0,5.27,244.0,6.37,12.17,47.59359,-54.27349
2022-05-01 07:44:00+00:00,237.0,5.36,238.0,6.33,12.17,47.59359,-54.27349
2022-05-01 07:54:00+00:00,241.0,5.66,242.0,6.21,12.17,47.59359,-54.27349
2022-05-01 08:04:00+00:00,243.0,5.67,247.0,6.18,12.17,47.59359,-54.27349
2022-05-01 08:14:01+00:00,229.0,4.56,242.0,5.74,12.17,47.59359,-54.27349
2022-05-01 08:24:01+00:00,225.0,4.42,235.0,5.65,12.17,47.59359,-54.27349
2022-05-01 08:34:01+00:00,216.0,4.5,232.0,5.66,12.17,47.59359,-54.27349
2022-05-01 08:44:01+00:00,224.0,4.36,231.0,5.4,12.17,47.59359,-54.27349
2022-05-01 08:54:01+00:00,211.0,6.07,214.0,6.62,12.17,47.59359,-54.27349
2022-05-01 09:04:01+00:00,217.0,4.74,215.0,5.51,12.17,47.59359,-54.27349
2022-05-01 09:14:00+00:00,224.0,4.51,222.0,5.86,12.17,47.59359,-54.27349
2022-05-01 09:24:00+00:00,236.0,4.45,242.0,6.04,12.17,47.59359,-54.27349
2022-05-01 09:34:00+00:00,232.0,4.63,243.0,6.53,12.17,47.59359,-54.27349
2022-05-01 09:44:00+00:00,242.0,4.19,243.0,5.66,12.17,47.59359,-54.27349
2022-05-01 09:54:00+00:00,233.0,4.58,236.0,5.19,12.17,47.59359,-54.27349
2022-05-01 10:04:00+00:00,241.0,4.46,248.0,6.07,12.17,47.59359,-54.27349
2022-05-01 10:14:01+00:00,241.0,4.82,247.0,5.82,12.81,47.59359,-54.27349
2022-05-01 10:24:01+00:00,315.0,0.01,199.0,0.0,12.81,47.59359,-54.27349
2022-05-01 10:34:01+00:00,240.0,3.5,249.0,5.12,12.81,47.59359,-54.27349
2022-05-01 10:44:01+00:00,315.0,0.01,274.0,0.0,12.81,47.59359,-54.27349
2022-05-01 10:54:01+00:00,315.0,0.01,274.0,0.0,12.81,47.59359,-54.27349
2022-05-01 11:04:01+00:00,231.0,1.06,243.0,1.43,12.81,47.59359,-54.27349
2022-05-01 11:14:00+00:00,220.0,1.66,228.0,2.04,13.29,47.59359,-54.27349
2022-05-01 11:24:00+00:00,214.0,4.41,214.0,5.33,13.29,47.59359,-54.27349
2022-05-01 11:34:00+00:00,214.0,8.12,213.0,9.2,13.29,47.59359,-54.27349
2022-05-01 11:44:00+00:00,209.0,8.43,211.0,9.31,13.29,47.59359,-54.27349
2022-05-01 11:54:00+00:00,205.0,8.11,206.0,8.95,13.29,47.59359,-54.27349
2022-05-01 12:04:00+00:00,201.0,6.69,203.0,7.82,13.29,47.59359,-54.27349
2022-05-01 12:14:01+00:00,205.0,7.4,205.0,8.37,13.68,47.59359,-54.27349
2022-05-01 12:24:01+00:00,205.0,6.63,211.0,7.3,13.68,47.59359,-54.27349
2022-05-01 12:34:01+00:00,208.0,6.43,203.0,7.36,13.68,47.59359,-54.27349
2022-05-01 12:44:01+00:00,210.0,6.57,207.0,7.35,13.68,47.59359,-54.27349
2022-05-01 12:54:01+00:00,207.0,6.78,211.0,7.86,13.68,47.59359,-54.27349
2022-05-01 13:04:01+00:00,206.0,8.0,208.0,8.9,13.68,47.59359,-54.27349
2022-05-01 13:14:01+00:00,205.0,7.68,207.0,8.36,13.6,47.59359,-54.27349
2022-05-01 13:24:01+00:00,209.0,8.51,222.0,9.7,13.6,47.59359,-54.27349
2022-05-01 13:34:01+00:00,203.0,8.17,205.0,9.08,13.6,47.59359,-54.27349
2022-05-01 13:44:01+00:00,203.0,8.48,206.0,9.24,13.6,47.59359,-54.27349
2022-05-01 13:54:01+00:00,203.0,8.04,208.0,8.84,13.6,47.59359,-54.27349
2022-05-01 14:04:01+00:00,206.0,9.41,205.0,10.32,13.6,47.59359,-54.27349
2022-05-01 14:14:00+00:00,205.0,9.34,208.0,10.42,13.68,47.59359,-54.27349
2022-05-01 14:24:00+00:00,207.0,9.12,216.0,10.41,13.68,47.59359,-54.27349
2022-05-01 14:34:00+00:00,204.0,7.64,205.0,8.52,13.68,47.59359,-54.27349
2022-05-01 14:44:00+00:00,203.0,8.71,205.0,9.8,13.68,47.59359,-54.27349
2022-05-01 14:54:00+00:00,201.0,8.73,199.0,9.51,13.68,47.59359,-54.27349
2022-05-01 15:04:00+00:00,195.0,7.52,196.0,8.42,13.68,47.59359,-54.27349
2022-05-01 15:14:00+00:00,201.0,8.72,202.0,9.41,13.84,47.59359,-54.27349
2022-05-01 15:24:00+00:00,203.0,8.65,202.0,9.77,13.84,47.59359,-54.27349
2022-05-01 15:34:00+00:00,206.0,10.48,212.0,11.82,13.84,47.59359,-54.27349
2022-05-01 15:44:00+00:00,202.0,9.77,201.0,10.82,13.84,47.59359,-54.27349
2022-05-01 15:54:00+00:00,213.0,11.97,219.0,13.63,13.84,47.59359,-54.27349
2022-05-01 16:04:00+00:00,208.0,11.13,216.0,13.19,13.84,47.59359,-54.27349
2022-05-01 16:14:01+00:00,216.0,11.73,220.0,13.64,13.6,47.59359,-54.27349
2022-05-01 16:24:01+00:00,215.0,10.09,224.0,11.92,13.6,47.59359,-54.27349
2022-05-01 16:34:01+00:00,221.0,8.51,233.0,11.7,13.6,47.59359,-54.27349
2022-05-01 16:44:01+00:00,225.0,9.32,230.0,10.85,13.6,47.59359,-54.27349
2022-05-01 16:54:01+00:00,220.0,8.78,233.0,10.43,13.6,47.59359,-54.27349
2022-05-01 17:04:01+00:00,216.0,8.92,231.0,11.0,13.6,47.59359,-54.27349
2022-05-01 17:14:00+00:00,220.0,8.4,227.0,10.41,13.68,47.59359,-54.27349
2022-05-01 17:24:00+00:00,220.0,8.53,232.0,10.22,13.68,47.59359,-54.27349
2022-05-01 17:34:00+00:00,215.0,6.98,230.0,10.19,13.68,47.59359,-54.27349
2022-05-01 17:44:00+00:00,211.0,8.84,222.0,10.76,13.68,47.59359,-54.27349
2022-05-01 17:54:00+00:00,210.0,7.83,208.0,8.75,13.68,47.59359,-54.27349
2022-05-01 18:04:00+00:00,212.0,9.09,229.0,11.23,13.68,47.59359,-54.27349
2022-05-01 18:14:01+00:00,208.0,7.78,215.0,8.93,14.0,47.59359,-54.27349
2022-05-01 18:24:01+00:00,207.0,8.78,218.0,10.86,14.0,47.59359,-54.27349
2022-05-01 18:34:01+00:00,204.0,9.02,216.0,9.99,14.0,47.59359,-54.27349
2022-05-01 18:44:01+00:00,208.0,8.35,221.0,10.1,14.0,47.59359,-54.27349
2022-05-01 18:54:01+00:00,202.0,8.66,203.0,9.4,14.0,47.59359,-54.27349
2022-05-01 19:04:01+00:00,204.0,9.03,206.0,10.34,14.0,47.59359,-54.27349
2022-05-01 19:14:01+00:00,205.0,7.85,211.0,8.85,13.76,47.59359,-54.27349
2022-05-01 19:24:01+00:00,205.0,8.8,207.0,9.56,13.76,47.59359,-54.27349
2022-05-01 19:34:01+00:00,206.0,7.64,207.0,8.31,13.76,47.59359,-54.27349
2022-05-01 19:44:01+00:00,207.0,7.71,206.0,8.74,13.76,47.59359,-54.27349
2022-05-01 19:54:01+00:00,212.0,9.25,218.0,10.5,13.76,47.59359,-54.27349
2022-05-01 20:04:01+00:00,218.0,9.21,227.0,10.91,13.76,47.59359,-54.27349
2022-05-01 20:14:00+00:00,211.0,7.87,215.0,8.73,13.68,47.59359,-54.27349
2022-05-01 20:24:00+00:00,194.0,7.93,195.0,8.78,13.68,47.59359,-54.27349
2022-05-01 20:34:00+00:00,201.0,8.45,202.0,9.09,13.68,47.59359,-54.27349
2022-05-01 20:44:00+00:00,206.0,7.73,208.0,8.56,13.68,47.59359,-54.27349
2022-05-01 20:54:00+00:00,207.0,7.93,206.0,8.76,13.68,47.59359,-54.27349
2022-05-01 21:04:00+00:00,209.0,7.67,215.0,8.34,13.68,47.59359,-54.27349
2022-05-01 21:14:01+00:00,218.0,7.31,229.0,8.82,13.44,47.59359,-54.27349
2022-05-01 21:24:01+00:00,214.0,6.67,215.0,7.36,13.44,47.59359,-54.27349
2022-05-01 21:34:01+00:00,203.0,6.82,202.0,7.97,13.44,47.59359,-54.27349
2022-05-01 21:44:01+00:00,199.0,7.06,197.0,8.08,13.44,47.59359,-54.27349
2022-05-01 21:54:01+00:00,203.0,7.5,203.0,8.21,13.44,47.59359,-54.27349
2022-05-01 22:04:01+00:00,206.0,6.56,209.0,7.26,13.44,47.59359,-54.27349
2022-05-01 22:14:01+00:00,207.0,6.02,198.0,7.56,13.21,47.59359,-54.27349
2022-05-01 22:24:01+00:00,200.0,6.44,202.0,7.11,13.21,47.59359,-54.27349
2022-05-01 22:34:01+00:00,213.0,4.83,215.0,5.61,13.21,47.59359,-54.27349
2022-05-01 22:44:01+00:00,216.0,4.88,214.0,5.55,13.21,47.59359,-54.27349
2022-05-01 22:54:01+00:00,223.0,4.6,223.0,5.24,13.21,47.59359,-54.27349
2022-05-01 23:04:01+00:00,209.0,4.44,207.0,4.93,13.21,47.59359,-54.27349
2022-05-01 23:14:00+00:00,205.0,4.97,206.0,5.36,12.57,47.59359,-54.27349
2022-05-01 23:24:00+00:00,199.0,4.94,200.0,5.61,12.57,47.59359,-54.27349
2022-05-01 23:34:00+00:00,205.0,4.98,209.0,5.48,12.57,47.59359,-54.27349
2022-05-01 23:44:00+00:00,212.0,4.8,214.0,5.56,12.57,47.59359,-54.27349
2022-05-01 23:54:00+00:00,221.0,4.4,221.0,4.94,12.57,47.59359,-54.27349
